STARLINK-37602, 69358

Orbit data source: Space-Track

STARLINK-37602, 69358 is a payload satellite owned by SpaceX/Seattle (US) in LEO that was launched on Thu, 04 Jun 2026 UTC via an FALCON 9 launch vehicle from the Air Force Eastern Test Range (AFETR). Payload-class satellites include a variety of spacecraft equipped with specific instruments for various scientific and technological missions. These include communications satellites like Starlink; space stations such as the ISS; scientific satellites like the Hubble; Earth observation satellites from companies like Planet Labs, Umbra, and HawkEye 360; GPS; miniature CubeSats for education and research; and military/defense satellites.

Loading next visibility...
Identifier
69358, 2026-123F
Orbit
LEO
Country
Flag of USUS
Related business
Manufacturer
SpaceX/Seattle
Mission
Operational spacecraft
Bus & Motor
STARLINK V2MO, Unknown motor
Mass
575 kg wet, ~530 kg dry
Launch date (UTC)
2026-06-04 (2 months ago)
Launch vehicle
FALCON 9
Launch site
Air Force Eastern Test Range (AFETR)
Object type
Payload
Rocket body
Debris
Shape & HBR
BOX + PAN, 17.7 m
Radar Cross Section
Large (>1 m²)

Expand to show TLE details & history
Last TLE update: 10 hours ago

TLE from 10 hours ago
0 STARLINK-37602
1 69358U 26123F   26207.57433197  .00267324  00000-0  16867-2 0  9995
2 69358  53.1527  46.0781 0000873  66.4561 293.6551 15.75330538  8243
Epoch: 2026-07-26T13:47Z
TLE epoch observation values (Epoch: 2026-07-26T13:47:02.282Z)
Latitude
Longitude
-104.95171°
Altitude
344.372 km
Speed
7.704 km/s
True Right ascension
03h 04m 18s
True Declination
0° 00' 00"
Sunlit
Object was in daylight at epoch
Visualization orbit readout
Latitude
Unknown
Longitude
Unknown
Altitude
Unknown
Speed
Unknown
Apparent Right ascension
Unknown
Apparent Declination
Unknown
Sunlit
N/A
Visualization observer readout
Local Sidereal Time
13:11:45
Azimuth
Unknown
Elevation
Unknown
Doppler factor
Unknown
Orbital elements
Apogee altitude
344.54 km
Perigee altitude
343.366 km
Semi-major axis
6,722.09 km
Eccentricity
0.00009
Inclination
53.1527°
RAAN
46.0781°
Arg. of periapsis
66.4561°
True anomaly
293.64594°
Mean anomaly
293.6551°
Eccentric anomaly
293.65052°
Mean motion
3.9381 °/min
Orbital period
91.41 mins
BSTAR
0.0016867
Loading maneuver chart data...
Computing Atmospheric mass density...
Loading historical data...
Loading historical data...
Loading historical data...
Loading historical data...
Loading historical data...
Loading historical data...
Loading historical data...

Documentation

Showing up to 5 results
|